Regional Weather Roundup
Issued by NWS

Home | Current Version | Previous Version | Graphics & Text | Print | Product List | Glossary On
Versions: 1 2 3 4 5 6 7 8 9 10 11 12 13 14 15 16 17 18 19 20 21 22 23 24 25 26 27
000
ASUS45 KBOU 250907
RWRCO

WEATHER ROUNDUP FOR COLORADO
NATIONAL WEATHER SERVICE DENVER/BOULDER CO
300 AM MDT TUE APR 25 2017

NOTE: "FAIR" INDICATES FEW OR NO CLOUDS BELOW 12000 FEET WITH NO
SIGNIFICANT WEATHER AND/OR OBSTRUCTIONS TO VISIBILITY.

COZ001>005-013-030-031-251000-
...NORTHWEST COLORADO...

CITY           SKY/WX    TMP DP  RH WIND       PRES   REMARKS
CRAIG          MOCLDY    34  31  88 CALM      29.72S
HAYDEN         MOCLDY    34  28  80 NE5       29.72S WCI  30
MEEKER         MOCLDY    36  34  92 NW5       29.72F
MOUNT WERNER   NOT AVBL
STEAMBOAT SPGS CLOUDY    32  32  99 CALM      29.72S
WALDEN           N/A     30  27  86 S6        29.68S WCI  24
$$

COZ006>008-011-251000-
...WEST CENTRAL VALLEYS...

CITY           SKY/WX    TMP DP  RH WIND       PRES   REMARKS
GRAND JUNCTION CLOUDY    44  40  85 E5        29.69S
MONTROSE       CLOUDY    43  35  73 SE8       29.76F
EAGLE          CLOUDY    38  31  76 NW6       29.74S
RIFLE          FAIR      39  37  92 W3        29.73S
DELTA          FAIR      48  33  56 CALM      29.71F
NUCLA          MOCLDY    48  25  40 CALM      29.76S
$$

COZ017>023-064>068-251000-
...SOUTHWEST COLORADO...

CITY           SKY/WX    TMP DP  RH WIND       PRES   REMARKS
DURANGO        FAIR      42  30  62 SW5       29.67F
CORTEZ         FAIR      45  33  63 SE5       29.69F
PAGOSA SPRINGS MOCLDY    39  32  76 CALM      29.71S
TELLURIDE      FLURRIES  36  30  79 W7        29.82S
WOLF CREEK PAS MOCLDY    27  27 100 S16G25    29.84F WCI  14
$$

COZ009-010-012-014-032>034-037-058>063-251000-
...CENTRAL COLORADO...

CITY           SKY/WX    TMP DP  RH WIND       PRES   REMARKS
ASPEN          LGT SNOW  31  31 100 S7        29.75F FOG     WCI  24
BUENA VISTA    CLOUDY    34  29  83 NW12G20   29.72S WCI  25
COPPER MTN     LGT SNOW  25  19  80 MISG      29.77S VSB 1
BERTHOUD PASS  CLOUDY    18   5  57 MISG      29.72S
COTTONWOOD PAS LGT SNOW  32  30  93 NW5       29.74S WCI  27
GUNNISON       LGT SNOW  34  30  85 VRB3      29.75R FOG
KREMMLING      CLOUDY    37  36  93 S3        29.72F
LEADVILLE      LGT SNOW  25  22  88 NW5       29.75R VSB 1   WCI  19
MONARCH PASS   CLOUDY    27  25  93 W39G61    29.85S VSB 1/4 WCI   8
SALIDA         CLOUDY    39  34  81 N15G26    29.76R
SUNLIGHT       CLOUDY    23  21  93 W8        29.80F WCI  14
WILKERSON PASS LGT SNOW  25  23  93 NW12G21   29.76S WCI  14
$$

COZ069>075-251000-
...SAN LUIS VALLEY/SANGRE DE CRISTO MOUNTAINS...

CITY           SKY/WX    TMP DP  RH WIND       PRES   REMARKS
ALAMOSA        FAIR      51  24  34 W10G20    29.64F
LA VETA PASS   FAIR      36  23  60 S23G40    29.82F
SAGUACHE       FAIR      43  28  56 NW12      29.67S
$$

COZ035-036-038>040-251000-
...NORTHERN COLORADO FRONT RANGE...

CITY           SKY/WX    TMP DP  RH WIND       PRES   REMARKS
DENVER INTL AP CLOUDY    42  39  89 E6        29.58F
DMNS CITY PARK   N/A     46  39  76 E5G21     29.57F
AURORA         LGT RAIN  43  41  92 SE6       29.60F
FRONT RANGE AP LGT RAIN  43  41  93 N3        29.60F
ERIE MUNI ARPT CLOUDY    44  41  89 CALM      29.57F
BOULDER MUN AP FAIR      43  43 100 CALM      29.56F
CENTENNIAL     LGT RAIN  43  39  86 SW8       29.60F
BROOMFIELD     FAIR      43  43 100 E3        29.58S
FORT COLLINS   FAIR      43  41  93 S6        29.57F
LONGMONT       FAIR      45  43  92 CALM      29.59F
$$

COZ041-046-047-076>085-087-088-251000-
...PIKES PEAK/PALMER DIVIDE AND SOUTHERN FOOTHILLS...

CITY           SKY/WX    TMP DP  RH WIND       PRES   REMARKS
COLO. SPRINGS  FAIR      44  37  76 N21G28    29.57R
A. F. ACADEMY  FAIR      42  36  80 N20       29.59R
SCHRIEVER AFB  FAIR      42  37  81 N18G28    29.57R
ELLICOTT       FAIR     N/A N/A N/A N17G29    29.55R
FALCON         MOCLDY    40  37  89 N20G31    29.60R
FORT CARSON    FAIR      45  36  69 NW15      29.55R
LIMON          CLOUDY    44  41  89 N18G28    29.56R
MONUMENT HILL  CLOUDY    37  36  93 N8        29.65R
TRINIDAD       FAIR      52  26  36 SW12      29.50F
$$

COZ042>045-048>051-090-091-251000-
...NORTHEAST COLORADO...

CITY           SKY/WX    TMP DP  RH WIND       PRES   REMARKS
GREELEY ARPT   FAIR      47  43  86 SE5       29.56F
AKRON          LGT RAIN  42  40  92 N15       29.57S
BURLINGTON     NOT AVBL
WRAY           NOT AVBL
STERLING       DRIZZLE   45  43  93 N12       29.55F
HOLYOKE        CLOUDY    45  39  81 NW20G32   29.58R
FORT MORGAN    LGT RAIN  43  40  90 NW14      29.58S
$$

COZ086-089-092>099-251000-
...SOUTHEAST COLORADO...

CITY           SKY/WX    TMP DP  RH WIND       PRES   REMARKS
PUEBLO         FAIR      51  39  63 N7        29.49R
LA JUNTA       FAIR      59  32  36 W15       29.43F
LAMAR          FAIR      58  32  37 W13       29.38F
SPRINGFIELD      N/A     50  32  50 W13       29.45S
$$




USA.gov is the U.S. government's official web portal to all federal, state and local government web resources and services.